This demonstration page uses our WeatherBlox Daily Observations layout. Learn more.

Left ArrowRight Arrow

Hourly Observations for October 15, 2016

Temp ( °F °C ) Dew Point ( °F °C ) Humidity (%) Winds ( mph kmh ) Pressure ( in mb ) Visibility ( mi km ) Precip ( " mm )
12:16 am 00:16 Clear 52 11 46 8 82 82 SSE 7 11 30.21 1023 10 16.0934 N/A
12:37 am 00:37 Clear 52 11 46 8 82 82 SE 5 7 30.21 1023 10 16.0934 N/A
12:56 am 00:56 Clear 52 11 46 8 82 82 SSE 5 7 30.21 1023 10 16.0934 N/A
1:16 am 01:16 Clear 52 11 46 8 82 82 SSE 6 9 30.21 1023 10 16.0934 N/A
1:37 am 01:37 Clear 52 11 46 8 82 82 SSE 5 7 30.18 1022 10 16.0934 N/A
1:56 am 01:56 Clear 52 11 46 8 82 82 SSE 6 9 30.18 1022 10 16.0934 N/A
2:16 am 02:16 Clear 52 11 48 9 88 88 SE 5 7 30.18 1022 10 16.0934 N/A
2:37 am 02:37 Clear 52 11 48 9 88 88 SSE 5 7 30.18 1022 10 16.0934 N/A
2:56 am 02:56 Clear 52 11 48 9 88 88 S 5 7 30.21 1023 10 16.0934 N/A
3:16 am 03:16 Mostly Cloudy 52 11 48 9 88 88 S 5 7 30.21 1023 10 16.0934 N/A
3:37 am 03:37 Mostly Cloudy 52 11 48 9 88 88 SSE 7 11 30.21 1023 10 16.0934 N/A
3:56 am 03:56 Partly Cloudy 52 11 48 9 88 88 S 5 7 30.21 1023 10 16.0934 N/A
4:16 am 04:16 Partly Cloudy 52 11 48 9 88 88 S 5 7 30.18 1022 10 16.0934 N/A
4:37 am 04:37 Mostly Cloudy 52 11 48 9 88 88 N N/A 30.18 1022 10 16.0934 N/A
4:56 am 04:56 Cloudy 52 11 48 9 88 88 S 3 6 30.18 1022 10 16.0934 N/A
5:16 am 05:16 Mostly Cloudy 52 11 48 9 88 88 N N/A 30.18 1022 10 16.0934 N/A
5:37 am 05:37 Clear 50 10 48 9 94 94 N N/A 30.21 1023 10 16.0934 N/A
5:56 am 05:56 Clear 50 10 48 9 94 94 S 3 6 30.21 1023 10 16.0934 N/A
6:16 am 06:16 Clear 50 10 48 9 94 94 SSE 3 6 30.21 1023 10 16.0934 N/A
6:37 am 06:37 Clear 50 10 48 9 94 94 SSE 5 7 30.21 1023 10 16.0934 N/A
6:56 am 06:56 Clear 50 10 48 9 94 94 SE 3 6 30.18 1022 10 16.0934 N/A
7:16 am 07:16 Clear 50 10 48 9 94 94 SSE 3 6 30.18 1022 10 16.0934 N/A
7:37 am 07:37 Clear 50 10 48 9 94 94 SSE 3 6 30.21 1023 10 16.0934 N/A
7:56 am 07:56 Sunny 50 10 48 9 94 94 SSE 5 7 30.21 1023 10 16.0934 N/A
8:16 am 08:16 Sunny 50 10 48 9 94 94 SSE 5 7 30.21 1023 7 11.26538 N/A
8:37 am 08:37 Sunny 52 11 50 10 94 94 SSE 3 6 30.21 1023 7 11.26538 N/A
8:56 am 08:56 Sunny 54 12 52 11 94 94 SSE 3 6 30.21 1023 7 11.26538 N/A
9:16 am 09:16 Sunny 55 13 52 11 88 88 S 6 9 30.21 1023 10 16.0934 N/A
9:37 am 09:37 Sunny 57 14 54 12 88 88 S 6 9 30.18 1022 7 11.26538 N/A
9:56 am 09:56 Sunny 59 15 54 12 82 82 SSE 8 13 30.18 1022 10 16.0934 N/A
10:17 am 10:17 Sunny 61 16 55 13 83 83 S 7 11 30.18 1022 10 16.0934 N/A
10:36 am 10:36 Mostly Cloudy 61 16 55 13 83 83 SSW 9 15 30.18 1022 10 16.0934 N/A
10:56 am 10:56 Cloudy 61 16 57 14 88 88 SSW 12 19 30.18 1022 10 16.0934 N/A
11:17 am 11:17 Cloudy 61 16 57 14 88 88 SW 9 15 30.18 1022 10 16.0934 N/A
11:36 am 11:36 Cloudy 63 17 57 14 83 83 SW 8 13 30.18 1022 10 16.0934 N/A
11:56 am 11:56 Cloudy 64 18 57 14 78 78 SW 10 17 30.18 1022 10 16.0934 N/A
12:17 pm 12:17 Cloudy 64 18 57 14 78 78 SW 13 20 30.15 1021 10 16.0934 N/A
12:36 pm 12:36 Cloudy 66 19 59 15 78 78 SW 12 19 30.15 1021 10 16.0934 N/A
12:56 pm 12:56 Cloudy 66 19 59 15 78 78 SW 14 22 30.15 1021 10 16.0934 N/A
1:17 pm 13:17 Cloudy 66 19 59 15 78 78 SW 17 28 30.15 1021 10 16.0934 N/A
1:36 pm 13:36 Mostly Cloudy 68 20 59 15 73 73 SSW 13 20 30.15 1021 10 16.0934 N/A
1:56 pm 13:56 Mostly Cloudy 70 21 59 15 69 69 SW 15 24 30.12 1020 10 16.0934 N/A
2:17 pm 14:17 Partly Cloudy 72 22 59 15 65 65 SSW 20 31 30.09 1019 10 16.0934 N/A
2:36 pm 14:36 Partly Cloudy 72 22 59 15 65 65 SW 15 24 30.09 1019 10 16.0934 N/A
2:56 pm 14:56 Partly Cloudy 72 22 59 15 65 65 SW 16 26 30.06 1018 10 16.0934 N/A
3:17 pm 15:17 Partly Cloudy 73 23 59 15 61 61 SSW 13 20 30.06 1018 10 16.0934 N/A
3:36 pm 15:36 Sunny 73 23 59 15 61 61 SW 14 22 30.06 1018 10 16.0934 N/A
3:56 pm 15:56 Sunny 73 23 59 15 61 61 SSW 13 20 30.06 1018 10 16.0934 N/A
4:17 pm 16:17 Partly Cloudy 73 23 59 15 61 61 SW 14 22 30.06 1018 10 16.0934 N/A
4:36 pm 16:36 Partly Cloudy 73 23 59 15 61 61 SSW 10 17 30.06 1018 10 16.0934 N/A
4:56 pm 16:56 Partly Cloudy 73 23 59 15 61 61 SSW 14 22 30.06 1018 10 16.0934 N/A
5:17 pm 17:17 Sunny 73 23 61 16 65 65 SSW 12 19 30.06 1018 10 16.0934 N/A
5:36 pm 17:36 Sunny 73 23 59 15 61 61 SSW 14 22 30.06 1018 10 16.0934 N/A
5:56 pm 17:56 Sunny 73 23 59 15 61 61 SSW 14 22 30.06 1018 10 16.0934 N/A
6:17 pm 18:17 Sunny 73 23 61 16 65 65 SSW 8 13 30.06 1018 10 16.0934 N/A
6:36 pm 18:36 Sunny 72 22 59 15 65 65 SSW 7 11 30.06 1018 10 16.0934 N/A
6:56 pm 18:56 Sunny 70 21 61 16 73 73 S 7 11 30.09 1019 10 16.0934 N/A
7:16 pm 19:16 Clear 70 21 59 15 69 69 SSW 6 9 30.09 1019 10 16.0934 N/A
7:36 pm 19:36 Clear 68 20 59 15 73 73 S 5 7 30.09 1019 10 16.0934 N/A
7:56 pm 19:56 Clear 68 20 59 15 73 73 S 5 7 30.09 1019 10 16.0934 N/A
8:16 pm 20:16 Clear 66 19 59 15 78 78 S 5 7 30.09 1019 10 16.0934 N/A
8:36 pm 20:36 Clear 66 19 59 15 78 78 S 5 7 30.09 1019 10 16.0934 N/A
8:57 pm 20:57 Clear 66 19 59 15 78 78 S 7 11 30.09 1019 10 16.0934 N/A
9:16 pm 21:16 Clear 66 19 59 15 78 78 S 5 7 30.09 1019 10 16.0934 N/A
9:36 pm 21:36 Clear 64 18 59 15 83 83 S 3 6 30.09 1019 10 16.0934 N/A
9:56 pm 21:56 Clear 64 18 59 15 83 83 S 6 9 30.09 1019 10 16.0934 N/A
10:16 pm 22:16 Clear 64 18 59 15 83 83 S 5 7 30.09 1019 10 16.0934 N/A
10:36 pm 22:36 Clear 64 18 59 15 83 83 S 5 7 30.09 1019 10 16.0934 N/A
10:56 pm 22:56 Clear 64 18 59 15 83 83 S 6 9 30.09 1019 10 16.0934 N/A
11:16 pm 23:16 Clear 64 18 59 15 83 83 S 6 9 30.09 1019 10 16.0934 N/A
11:36 pm 23:36 Clear 64 18 59 15 83 83 S 6 9 30.09 1019 10 16.0934 N/A
11:57 pm 23:57 Clear 64 18 59 15 83 83 S 6 9 30.09 1019 10 16.0934 N/A

Powered by AerisWeather